Weather in Selechnya

Russia / Bryansk Oblast     52°22′54″N   34°22′28″E
temp.,
°C
wind,
m/s
gust,
m/s
humid.,
%
clouds,
%
prec.,
mm/h
press.,
hPa
HPBL,
m
17 may, mon
mon1700:00+14ene248648 0.0 101170
03:00+13ene398698 0.0 1011173
06:00+14ene41490100 1.1 1009360
09:00+20e5137667 1.1 1007567
12:00+25ese61351100 0.0 10051151
15:00+25se6135445 0.0 10051648
18:00+23se6106570 0.0 10041258
21:00+18ese515830 0.7 1004645
18 may, tue
tue1800:00+17se4139187 0.1 1004611
03:00+16se3997100 0.1 1005334
06:00+16se399663 0.0 1005366
09:00+20sse597399 0.0 1005918
12:00+18sse3879100 1.1 1005554
15:00+20sse5773100 1.4 10051055
18:00+15ese169519 4.8 1005243
21:00+14se2797100 4.8 1005172
19 may, wed
wed1900:00+13ese2598100 0.0 1005140
03:00+13se129899 0.2 100454
06:00+13se259995 1.4 1004227
09:00+16sse358388 1.4 1004719
12:00+18sse477795 1.9 10051132
15:00+17sse5670100 2.8 10061179
18:00+18sse356341 0.1 10051260
21:00+13ese24925 0.4 100678
20 may, thu
thu2000:00+11ese26965 0.0 1005115
03:00+10se259886 0.0 1006126
06:00+11sse2596100 0.0 1006210
09:00+13sw358998 0.0 1006507
12:00+16sw477584 0.9 10071162
15:00+16w6106590 1.3 10091437
18:00+16wsw497144 0.2 10111317
21:00+12sw2293100 0.3 101345
21 may, fri
fri2100:00+11ssw279791 0.0 1014155
03:00+11ssw399595 0.2 1014302
06:00+12s2695100 0.0 1015217
09:00+13s2591100 0.1 1016302
12:00+14se2389100 0.0 1017283
15:00+17sw258098 0.9 1016519
18:00+17nne1284100 0.4 1014149
21:00+14se1196100 1.9 101426